When you browse on this site, cookies collect data to enhance your experience and personalize the content and advertising you see.
Visit our Privacy Policy to learn more. By continuing to use the site, you agree to this use of cookies and data.
  • In Austria
  • List of Countries
  • For 7 days
  • Water Temperature
  • Weather Map
  • News
  • Weather Widgets
  • user-avatar
    Login

    Hourly Weather Bad Hall

    Today, 20 February, Thursday

    Time Temperature Precipitation Wind Pressure Humidity
    00:00 +1°C° 0.1 mm 3 mps 733 mmHg 85%
    01:00 0°C° 0.1 mm 3 mps 734 mmHg 85%
    02:00 0°C° 0 mm 3 mps 734 mmHg 86%
    03:00 +1°C° 0 mm 2 mps 734 mmHg 87%
    04:00 -1°C° 0 mm 2 mps 734 mmHg 87%
    05:00 -1°C° 0 mm 2 mps 733 mmHg 87%
    06:00 +1°C° 0 mm 1 mps 733 mmHg 88%
    07:00 +1°C° 0 mm 1 mps 733 mmHg 88%
    08:00 +2°C° 0 mm 1 mps 733 mmHg 85%
    09:00 +3°C° 0 mm 2 mps 734 mmHg 81%
    10:00 +4°C° 0 mm 2 mps 734 mmHg 78%
    11:00 +4°C° 0 mm 2 mps 733 mmHg 78%
    12:00 +5°C° 0 mm 2 mps 733 mmHg 77%
    13:00 +7°C° 0 mm 1 mps 732 mmHg 77%
    14:00 +7°C° 0 mm 1 mps 732 mmHg 76%
    15:00 +7°C° 0 mm 1 mps 731 mmHg 76%
    16:00 +7°C° 0 mm 1 mps 731 mmHg 75%
    17:00 +6°C° 0 mm 1 mps 731 mmHg 79%
    18:00 +5°C° 0 mm 1 mps 731 mmHg 83%
    19:00 +4°C° 0 mm 1 mps 731 mmHg 86%
    20:00 +4°C° 0 mm 1 mps 731 mmHg 86%
    21:00 +3°C° 0 mm 1 mps 730 mmHg 85%
    22:00 +3°C° 0 mm 1 mps 730 mmHg 84%
    23:00 +2°C° 0 mm 2 mps 730 mmHg 82%

    Tomorrow, 21 February, Friday

    Time Temperature Precipitation Wind Pressure Humidity
    00:00 +2°C° 0 mm 2 mps 731 mmHg 81%
    01:00 +2°C° 0 mm 2 mps 731 mmHg 79%
    02:00 +3°C° 0.1 mm 2 mps 731 mmHg 81%
    03:00 +3°C° 0.1 mm 3 mps 730 mmHg 83%
    04:00 +4°C° 0.1 mm 4 mps 730 mmHg 85%
    05:00 +2°C° 0.6 mm 5 mps 731 mmHg 84%
    06:00 +2°C° 0.6 mm 6 mps 732 mmHg 83%
    07:00 +2°C° 0.6 mm 6 mps 732 mmHg 82%
    14:00 +3°C° 0 mm 6 mps 736 mmHg 62%
    15:00 +3°C° 0 mm 5 mps 736 mmHg 62%
    16:00 +3°C° 0 mm 5 mps 736 mmHg 62%
    17:00 +3°C° 0 mm 4 mps 736 mmHg 66%
    18:00 +2°C° 0 mm 3 mps 737 mmHg 71%
    19:00 +2°C° 0 mm 2 mps 737 mmHg 76%
    20:00 +2°C° 0 mm 2 mps 737 mmHg 77%
    21:00 +2°C° 0 mm 2 mps 737 mmHg 78%
    22:00 +3°C° 0 mm 1 mps 737 mmHg 78%
    23:00 +3°C° 0 mm 1 mps 737 mmHg 79%

    Day after tomorrow, 22 February, Saturday

    Time Temperature Precipitation Wind Pressure Humidity
    00:00 +3°C° 0 mm 1 mps 737 mmHg 79%
    01:00 +3°C° 0 mm 1 mps 738 mmHg 79%
    02:00 +3°C° 0 mm 1 mps 737 mmHg 79%
    03:00 +3°C° 0 mm 1 mps 737 mmHg 79%
    04:00 +3°C° 0 mm 1 mps 737 mmHg 79%
    05:00 +3°C° 0 mm 1 mps 737 mmHg 78%
    06:00 +2°C° 0 mm 1 mps 737 mmHg 78%
    07:00 +2°C° 0 mm 1 mps 737 mmHg 78%
    08:00 +4°C° 0 mm 1 mps 737 mmHg 73%
    09:00 +5°C° 0 mm 1 mps 736 mmHg 69%
    10:00 +7°C° 0 mm 1 mps 736 mmHg 64%
    11:00 +8°C° 0 mm 1 mps 736 mmHg 59%
    12:00 +10°C° 0 mm 1 mps 736 mmHg 54%
    13:00 +10°C° 0 mm 2 mps 735 mmHg 49%
    14:00 +12°C° 0 mm 2 mps 735 mmHg 52%
    15:00 +12°C° 0 mm 2 mps 734 mmHg 56%
    16:00 +12°C° 0 mm 1 mps 734 mmHg 59%
    17:00 +9°C° 0 mm 2 mps 734 mmHg 61%
    18:00 +8°C° 0 mm 2 mps 734 mmHg 63%
    19:00 +7°C° 0 mm 2 mps 734 mmHg 65%
    20:00 +7°C° 0 mm 2 mps 735 mmHg 64%
    21:00 +6°C° 0 mm 2 mps 735 mmHg 63%
    22:00 +6°C° 0 mm 2 mps 735 mmHg 63%
    23:00 +6°C° 0 mm 2 mps 735 mmHg 63%

    23 February, Sunday

    Time Temperature Precipitation Wind Pressure Humidity
    00:00 +6°C° 0 mm 2 mps 735 mmHg 63%
    01:00 +6°C° 0 mm 2 mps 735 mmHg 63%
    02:00 +6°C° 0 mm 2 mps 734 mmHg 64%
    03:00 +6°C° 0 mm 2 mps 734 mmHg 64%
    04:00 +5°C° 0 mm 2 mps 734 mmHg 65%
    05:00 +6°C° 0 mm 2 mps 734 mmHg 65%
    06:00 +6°C° 0 mm 2 mps 734 mmHg 66%
    07:00 +6°C° 0 mm 2 mps 734 mmHg 67%
    08:00 +6°C° 0.1 mm 2 mps 733 mmHg 68%
    09:00 +7°C° 0.1 mm 2 mps 733 mmHg 69%
    10:00 +7°C° 0.1 mm 2 mps 733 mmHg 70%
    11:00 +8°C° 0.2 mm 2 mps 732 mmHg 69%
    12:00 +8°C° 0.2 mm 3 mps 732 mmHg 69%
    13:00 +9°C° 0.2 mm 3 mps 732 mmHg 68%
    14:00 +9°C° 0.3 mm 2 mps 731 mmHg 72%
    15:00 +9°C° 0.3 mm 2 mps 729 mmHg 75%
    16:00 +10°C° 0.3 mm 1 mps 728 mmHg 79%
    17:00 +9°C° 0.4 mm 2 mps 728 mmHg 79%
    18:00 +8°C° 0.4 mm 2 mps 728 mmHg 78%
    19:00 +8°C° 0.4 mm 3 mps 727 mmHg 78%
    20:00 +8°C° 0.9 mm 4 mps 727 mmHg 79%
    21:00 +8°C° 0.9 mm 6 mps 727 mmHg 81%
    22:00 +9°C° 0.9 mm 8 mps 726 mmHg 82%
    23:00 +8°C° 0.7 mm 9 mps 727 mmHg 82%

    24 February, Monday

    Time Temperature Precipitation Wind Pressure Humidity
    00:00 +7°C° 0.7 mm 9 mps 728 mmHg 83%
    01:00 +7°C° 0.7 mm 10 mps 729 mmHg 84%
    02:00 +6°C° 1.1 mm 9 mps 730 mmHg 83%
    03:00 +4°C° 1.1 mm 7 mps 731 mmHg 82%
    04:00 +3°C° 1.1 mm 6 mps 732 mmHg 82%
    05:00 +2°C° 0.6 mm 6 mps 733 mmHg 81%
    06:00 +2°C° 0.6 mm 6 mps 734 mmHg 80%
    07:00 +1°C° 0.6 mm 6 mps 735 mmHg 79%
    08:00 +2°C° 0 mm 5 mps 736 mmHg 75%
    09:00 +2°C° 0 mm 5 mps 736 mmHg 71%
    10:00 +2°C° 0 mm 5 mps 737 mmHg 68%
    11:00 +3°C° 0 mm 5 mps 736 mmHg 64%
    12:00 +5°C° 0 mm 4 mps 736 mmHg 59%
    13:00 +6°C° 0 mm 4 mps 736 mmHg 55%
    14:00 +7°C° 0 mm 3 mps 736 mmHg 57%
    15:00 +7°C° 0 mm 3 mps 735 mmHg 59%
    16:00 +7°C° 0 mm 2 mps 735 mmHg 61%
    17:00 +6°C° 0 mm 2 mps 734 mmHg 65%
    18:00 +7°C° 0 mm 1 mps 734 mmHg 70%
    19:00 +5°C° 0 mm 0 mps 734 mmHg 75%
    20:00 +5°C° 0 mm 1 mps 734 mmHg 76%
    21:00 +5°C° 0 mm 1 mps 733 mmHg 77%
    22:00 +5°C° 0 mm 1 mps 733 mmHg 78%
    23:00 +5°C° 0 mm 1 mps 732 mmHg 78%

    25 February, Tuesday

    Time Temperature Precipitation Wind Pressure Humidity
    00:00 +4°C° 0 mm 1 mps 732 mmHg 79%
    01:00 +4°C° 0 mm 1 mps 731 mmHg 79%
    02:00 +4°C° 0 mm 1 mps 731 mmHg 78%
    03:00 +5°C° 0 mm 1 mps 730 mmHg 77%
    04:00 +5°C° 0 mm 1 mps 730 mmHg 76%
    05:00 +5°C° 0 mm 1 mps 729 mmHg 76%
    06:00 +5°C° 0 mm 1 mps 729 mmHg 76%
    07:00 +5°C° 0 mm 1 mps 729 mmHg 75%
    08:00 +6°C° 0 mm 1 mps 728 mmHg 74%
    09:00 +8°C° 0 mm 1 mps 728 mmHg 72%
    10:00 +9°C° 0 mm 1 mps 728 mmHg 70%
    11:00 +11°C° 0 mm 1 mps 727 mmHg 68%
    12:00 +13°C° 0 mm 2 mps 726 mmHg 66%
    13:00 +13°C° 0 mm 3 mps 726 mmHg 64%
    14:00 +14°C° 0 mm 2 mps 725 mmHg 67%
    15:00 +14°C° 0 mm 1 mps 724 mmHg 70%
    16:00 +14°C° 0 mm 1 mps 724 mmHg 72%
    17:00 +13°C° 0 mm 1 mps 723 mmHg 75%
    18:00 +11°C° 0 mm 1 mps 723 mmHg 78%
    19:00 +9°C° 0 mm 2 mps 723 mmHg 81%
    20:00 +9°C° 0 mm 2 mps 723 mmHg 81%
    21:00 +9°C° 0 mm 2 mps 723 mmHg 80%
    22:00 +9°C° 0 mm 2 mps 723 mmHg 79%
    23:00 +9°C° 0.1 mm 2 mps 723 mmHg 79%
    Show more